Miramar MCAS, CA

12:28 PM PDT on May 28, 2017 (GMT -0700)
Miramar Marine Corps Air Station-Mitscher

Weather History for KNKX - November, 2013

Change the Weather History Date:

Saturday, November 30, 2013

  Actual Average Record
Temperature  
Mean Temperature 58 °F -  
Max Temperature 69 °F 64 °F 72 °F (2014)
Min Temperature 48 °F 44 °F 35 °F (2010)
Degree Days  
Heating Degree Days 6    
Growing Degree Days 8 (Base 50)    
Moisture  
Dew Point 47 °F    
Average Humidity 69    
Maximum Humidity 90    
Minimum Humidity 40    
Precipitation  
Precipitation 0.00 in - - ()
Sea Level Pressure  
Sea Level Pressure 30.13 in    
Wind  
Wind Speed 6 mph (NNE)    
Max Wind Speed 12 mph    
Max Gust Speed -    
Visibility 10 miles    
Events      
Averages and records for this station are not official NWS values.
T = Trace of Precipitation, MM = Missing Value Source: NWS Daily Summary

Daily Weather History Graph

Daily Weather History Graph

Search for Another Location

Airport or City:

Trip Planner

Search our weather history database for the weather conditions in past years. The results will help you decide how hot, cold, wet, or windy it might be!

Date:

Astronomy

Nov. 30, 2013 Rise Set
Actual Time 6:32 AM PST 4:42 PM PST
Civil Twilight 6:05 AM PST 5:08 PM PST
Nautical Twilight 5:35 AM PST 5:39 PM PST
Astronomical Twilight 5:05 AM PST 6:09 PM PST
Moon 3:55 AM PST (11/30) 3:03 PM PST (11/30)
Length of Visible Light 11h 03m
Length of Day
10h 09m
Waning Crescent, 6% of the Moon is Illuminated
Nov 30
Waning Crescent
Dec 2
New
Dec 9
First Quarter
Dec 17
Full
Dec 25
Last Quarter

Hourly Weather History & Observations

Time (PST) Temp. Dew Point Humidity Pressure Visibility Wind Dir Wind Speed Gust Speed Precip Events Conditions
12:55 AM 52.0 °F 48.0 °F 86% 30.15 in 10.0 mi East 5.8 mph - N/A   Scattered Clouds
1:55 AM 51.1 °F 46.9 °F 86% 30.14 in 10.0 mi ENE 6.9 mph - N/A   Scattered Clouds
2:55 AM 51.1 °F 46.9 °F 86% 30.14 in 10.0 mi ENE 4.6 mph - N/A   Clear
3:55 AM 50.0 °F 46.0 °F 86% 30.12 in 10.0 mi NE 4.6 mph - N/A   Partly Cloudy
4:55 AM 50.0 °F 46.0 °F 86% 30.14 in 10.0 mi ENE 5.8 mph - N/A   Partly Cloudy
5:55 AM 48.0 °F 44.1 °F 86% 30.14 in 10.0 mi NNE 3.5 mph - N/A   Partly Cloudy
6:55 AM 48.9 °F 46.0 °F 90% 30.15 in 10.0 mi East 5.8 mph - N/A   Partly Cloudy
7:55 AM 57.9 °F 50.0 °F 75% 30.15 in 10.0 mi East 5.8 mph - N/A   Partly Cloudy
8:55 AM 64.0 °F 48.0 °F 56% 30.16 in 10.0 mi Calm Calm - N/A   Partly Cloudy
9:55 AM 66.9 °F 42.1 °F 40% 30.16 in 10.0 mi WNW 6.9 mph - N/A   Partly Cloudy
10:55 AM 68.0 °F 43.0 °F 40% 30.14 in 10.0 mi NW 6.9 mph - N/A   Partly Cloudy
11:55 AM 69.1 °F 44.1 °F 40% 30.11 in 10.0 mi NW 6.9 mph - N/A   Partly Cloudy
12:55 PM 68.0 °F 48.0 °F 49% 30.08 in 10.0 mi WNW 11.5 mph - N/A   Scattered Clouds
1:55 PM 68.0 °F 51.1 °F 55% 30.06 in 10.0 mi WNW 10.4 mph - N/A   Mostly Cloudy
2:55 PM 66.9 °F 50.0 °F 54% 30.07 in 10.0 mi NW 9.2 mph - N/A   Mostly Cloudy
3:55 PM 64.0 °F 46.9 °F 54% 30.08 in 10.0 mi WNW 8.1 mph - N/A   Mostly Cloudy
4:55 PM 62.1 °F 48.0 °F 60% 30.09 in 10.0 mi NNW 4.6 mph - N/A   Mostly Cloudy
5:55 PM 60.1 °F 48.9 °F 67% 30.10 in 10.0 mi NNW 4.6 mph - N/A   Scattered Clouds
6:55 PM 59.0 °F 50.0 °F 72% 30.12 in 10.0 mi NNW 3.5 mph - N/A   Scattered Clouds
7:55 PM 54.0 °F 46.0 °F 75% 30.14 in 10.0 mi ENE 3.5 mph - N/A   Scattered Clouds
8:55 PM 52.0 °F 45.0 °F 77% 30.14 in 10.0 mi ENE 4.6 mph - N/A   Partly Cloudy
9:55 PM 51.1 °F 44.1 °F 77% 30.14 in 10.0 mi East 4.6 mph - N/A   Partly Cloudy
10:55 PM 52.0 °F 44.1 °F 74% 30.15 in 10.0 mi NE 3.5 mph - N/A   Partly Cloudy
11:55 PM 50.0 °F 44.1 °F 80% 30.15 in 10.0 mi East 5.8 mph - N/A   Scattered Clouds